Tracking 19638 objects as of 22-Apr-2019
HD Live streaming from Space Station
objects crossing your sky now

O3B FM16

Track O3B FM16 now!
10-day predictions
O3B FM16 is classified as:


NORAD ID: 43232
Int'l Code: 2018-024B
Perigee: 8,068.6 km
Apogee: 8,077.5 km
Inclination: 0.0 °
Period: 287.9 minutes
Semi major axis: 14444 km
RCS: Unknown
Launch date: March 9, 2018
Source: O3b Networks (O3B)
Launch site: FRENCH GUIANA (FRGUI)
aabbcc
Your satellite tracking list
Your tracking list is empty




NASA's NSSDC Master Catalog

Two Line Element Set (TLE):
1 43232U 18024B   19109.57110006 -.00000028  00000-0  00000+0 0  9999
2 43232   0.0405  21.3726 0003067   4.3954 334.2462  5.00115965 20320
Source of the keplerian elements: AFSPC